Location: Ajisawe
(8.4333°N, 4.3833°E)
Time: 20:26:04
(UTC+00:00)

Vanguard 2 Rocket - Pass Details

Date: 23 April 2021
Orbit: 554 x 3326 km, 32.9° (Epoch: 16 May)

Event Time Altitude Azimuth Distance (km) Brightness Sun altitude
Rises 20:47:30 0° 295° (WNW) 6,576 12.1 -42.0°
Reaches altitude 10° 20:52:44 10° 289° (WNW) 5,156 11.3 -43.2°
Enters shadow 21:04:03 41° 240° (WSW) 2,347 8.9 -45.7°
Maximum altitude 21:05:18 43° 224° (SW) 2,201 - -45.9°
Drops below altitude 10° 21:12:40 10° 154° (SSE) 3,057 - -47.5°
Sets 21:15:01 0° 146° (SE) 3,744 - -48.0°
